www.pogodaiklimat.ru

Погода и климат >> Архив погоды >> Боливия >> San Matias


ПОГОДА в San Matias

  • Прогноз погоды в San Matias
  • Монитор погоды в San Matias
  • Климат города

АРХИВ ПОГОДЫ в San Matias

Время (UTC), дата Ветер
(напр.,м/с)
 
Видим.   Явления Облачность Т
(С)
Тd
(С)
f
(%)
Тe
(С)
Тes
(С)
Комфортность P
(гПа)
Po
(гПа)
Тmin
(С)
Tmax
(С)
R
(мм)
R24
(мм)
S
(см)
12 17.08 штиль 0 20 км 10/10 180 м
[Sc]
+21.0 +20.3 96 +26 +26 душно 1018.3 1007.3 +19.0 33
15 17.08 штиль 0 20 км 10/10 240 м
[Sc]
+22.5 +21.0 91 +29 +29 очень
душно
1018.2 1006.0
18 17.08 штиль 0 20 км 10/10 300 м
[Sc]
+24.0 +21.5 86 +31 +31 очень
душно
1014.7 1003.8
21 17.08 Ю 3 20 км 10/8 360 м
[Sc As op]
+24.0 +21.6 86 +31 +31 очень
душно
1014.8 1003.8 +25.0
12 18.08 штиль 0 30 км 8/4 500 м
[Sc diur, vesp As trans]
+21.0 +19.5 91 +25 +27 комфорт 1017.2 1005.5 +20.0
15 18.08 штиль 0 30 км 8/1 500 м
[Sc diur, vesp As trans]
+28.3 +21.6 67 +36 +47 очень
душно
1016.3 1004.8
18 18.08 штиль 0 30 км 5/0 2000 м
[Ac trans]
+31.8 +21.4 54 +40 +51 опасность
солнечного
удара
1012.2 1002.2
21 18.08 штиль 0 30 км 6/0 2000 м
[Ac trans]
+30.0 +23.2 67 +40 +41 очень
душно
1010.8 1000.0 +32.0
12 19.08 штиль 0 30 км ясно +22.0 +19.8 87 +28 +33 душно 1012.2 1001.8 +20.3
15 19.08 штиль 0 30 км ясно +31.0 +21.3 56 +39 +61 опасность
солнечного
удара
1012.0 1001.5
18 19.08 СЗ 4 30 км 4/0 2000 м
[Ac trans]
+34.0 +20.0 44 +40 +46 очень
душно
1008.2 998.0
21 19.08 штиль 0 30 км ясно +31.0 +22.8 62 +41 +42 опасность
перегрева
1006.5 996.5 +35.0
12 20.08 штиль 0 20 км 8/0 2000 м
[Ac lent]
+22.8 +20.8 88 +30 +32 очень
душно
1015.8 1060.8 +21.5
15 20.08 штиль 0 20 км 8/0 2000 м
[Ac lent]
+28.8 +23.2 72 +39 +47 очень
душно
1017.2 1007.0
18 20.08 Ю 6 20 км 8/5 500 м
[Cb cap Ac lent]
+28.0 +23.2 75 +38 +39 очень
душно
1016.0 1005.0
12 21.08 Ю 3 30 км 8/0 2000 м
[Ac lent]
+18.8 +14.2 75 +20 +21 1023.2 1007.2 +17.2
15 21.08 Ю 3 30 км 4/0 2000 м
[Ac trans]
+22.0 +11.8 52 +24 +35 комфорт 1023.5 1008.0
18 21.08 Ю 4 30 км 4/0 2000 м
[Ac trans]
+26.0 +9.5 35 +26 +33 жарко 1020.8 1007.0
21 21.08 Ю 3 30 км ясно +24.5 +12.2 46 +26 +27 жарко 1020.1 1005.8 +27.0
12 22.08 штиль 0 30 км ясно +17.0 +12.8 76 +17 +23 1019.8 1009.8 +13.8
15 22.08 штиль 0 30 км ясно +25.0 +15.9 57 +28 +51 опасность
солнечного
удара
1019.6 1008.2
18 22.08 штиль 0 30 км ясно +30.0 +18.5 50 +35 +52 опасность
солнечного
удара
1015.8 1006.0
21 22.08 штиль 0 30 км ясно +30.0 +18.5 50 +35 +36 очень
душно
1013.5 1003.5 +32.0
12 23.08 штиль 0 30 км ясно +23.5 +19.8 80 +29 +35 душно 1015.2 1004.5 +19.0
15 23.08 штиль 0 30 км ясно +30.8 +21.4 57 +39 +61 опасность
солнечного
удара
1015.5 1004.5
18 23.08 СЗ 3 30 км ясно +35.3 +20.3 42 +42 +52 опасность
перегрева
1010.8 1001.0
21 23.08 штиль 0 30 км 4/4 600 м
[Cu med, cong]
+35.2 +20.3 42 +42 +42 опасность
перегрева
1009.3 999.0 +36.8

 

Местоположение метеостанции San Matias (Боливия): широта -16.33 долгота -58.38 высота над уровнем моря 124 м.

В архиве по умолчанию представлена погода в San Matias за последнюю неделю. Архивные данные за месяц целиком и за предыдущие месяцы, начиная с января 2011 года, Вы можете получить, выбрав интересующий диапазон дат из раскрывающегося списка и нажав кнопку "Ввод!".

Внимание! Время в таблицах - всемирное. Для получения местного времени необходимо прибавить поправку, которая в San Matias равна -4 ч.

Смотрите также архив погоды в соседних городах и на ближайших метеорологических станциях:

Погода в Caceres (Бразилия) (81 км)
Погода в Cuiaba (Бразилия) (255 км)
Погода в Robore (Боливия) (265 км)
Погода в San Ignacio De Vela (Боливия) (275 км)
Погода в Diamantino (Бразилия) (298 км)
Погода в San Jose De Chiquit (Боливия) (299 км)
Погода в Puerto Suarez (Боливия) (301 км)
Погода в Concepcion (Боливия) (388 км)
Погода в Poxoreo (Бразилия) (431 км)
Погода в San Javier (Боливия) (436 км)

Пояснения к столбцам:

Ветер - указаны скорость ветра в м/с - средняя за 10 мин, порывы в срок и между сроками (в фигурных скобках) и направление, откуда дует ветер: С - северный, СВ - северо-восточный, В - восточный, ЮВ - юго-восточный, Ю - южный, ЮЗ - юго-западный, З - западный, СЗ - северо-западный.
Видимость - горизонтальная дальность видимости в метрах или километрах. При видимости от 1 до 10 км при отсутствии осадков обычно наблюдается дымка, при ухудшении видимости до 1 км и менее - туман. В сухую погоду видимость может ухудшаться дымом, пылью или мглою.
Явления - указаны атмосферные явления, наблюдавшиеся в срок или в последний час перед сроком; фигурными скобками обозначены явления, наблюдавшиеся между сроками (за 1-3 часа до срока); квадратными скобками обозначены град или гололедные отложения с указанием их диаметра в мм.
Облачность - указаны через наклонную черту общая и нижняя облачность в баллах и высота нижней границы облаков в метрах; квадратными скобками обозначены формы облаков: Ci - перистые, Cs - перисто-слоистые, Cc - перисто-кучевые, Ac - высококучевые, As - высокослоистые, Sc - слоисто-кучевые, Ns - слоисто-дождевые, Cu - кучевые, Cb - кучево-дождевые. Подробнее классификацию облаков см. в Атласе облаков (PDF).
T - Температура воздуха - температура, измеренная на высоте 2 м над землей.
Td - Температура точки росы - температура, при понижении до которой содержащийся в воздухе водяной пар достигнет насыщения.
f - Относительная влажность воздуха - влажноcть воздуха, измеренная на высоте 2 м над землей.
Te - Эффективная температура - температура, которую ощущает одетый по сезону человек в тени. Характеристика душности погоды. При расчете учитывается влияние влажности воздуха и скорости ветра на теплоощущения человека.
Tes - Эффективная температура на солнце - температура, которую ощущает человек, с поправкой на солнечный нагрев. Характеристика знойности погоды. Зависит от высоты солнца над горизонтом, облачности и скорости ветра. Ночью, в пасмурную погоду, а также при ветре 12 м/с и более поправка равна нулю.
P - Атмосферное давление - приведенное к уровню моря атмосферное давление.
Po - Атмосферное давление - измеренное на уровне метеостанции атмосферное давление.
Tmin - Минимальная температура - минимум температуры воздуха на высоте 2 м над землей.
Tmax - Максимальная температура - максимум температуры воздуха на высоте 2 м над землей.
R - Количество осадков - Количество выпавших осадков за период времени, мм. При наведении курсора мыши на число - период времени, за который выпало указанное количество осадков.
R24 - Количество осадков - Количество выпавших осадков за 24 часа, мм.
S - Снежный покров - Высота снежного покрова, см. При наведении курсора мыши на число - состояние снежного покрова и степень покрытия местности в баллах.